[[{"header":{"parameterUnit":"m.s-1","parameterCategory":1,"la1":30.2991,"la2":30.254,"lo1":-89.0895,"lo2":-89.0444,"dy":0.0017,"dx":0.0017,"nx":28,"ny":28,"refTime":"2026-02-18T03:00:00:Z","depth":0,"parameterNumber":2,"parameterNumberName":"U-component_of_WINDS"},"data":[0,0,0,0,0,0,0,0,0,0,0,0,0,0,0,0,0,0,0,0,0,0,0,0,0,0,0,0,0,0,0,0,0,0,0,0,0,0,0,0,0,0,0,0,0,0,0,0,0,0,0,0,0,0,0,0,0,0,-0.2721,-0.2721,0,-0.2687,-0.2687,-0.2686,-0.2647,-0.2647,-0.2646,-0.2646,-0.2611,-0.2611,-0.261,0,0,0,0,0,0,0,0,0,0,0,0,0,-0.2751,-0.2751,-0.2721,-0.2721,-0.272,-0.2687,-0.2687,-0.2686,-0.2648,-0.2647,-0.2646,-0.2645,-0.2611,-0.2611,-0.261,0,0,0,0,0,0,0,0,0,0,0,0,0,-0.273,-0.275,-0.2721,-0.2697,-0.2694,-0.2687,-0.2687,-0.2686,-0.2648,-0.2647,-0.2646,-0.2645,-0.2611,-0.2611,-0.261,-0.2624,0,0,-0.2608,-0.2608,0,0,0,0,0,0,0,0,-0.2731,-0.2729,-0.2701,-0.2699,-0.2696,-0.2671,-0.2684,-0.2665,-0.2648,-0.2665,-0.2646,-0.2645,-0.2632,-0.2629,-0.2625,-0.2623,-0.2621,-0.2608,-0.2608,-0.2608,-0.2608,0,0,0,0,0,0,0,-0.2732,-0.273,-0.2708,-0.2701,-0.2697,-0.2687,-0.2683,-0.2681,-0.2654,-0.2664,-0.2661,-0.2657,-0.263,-0.2625,-0.2624,-0.2621,-0.2608,-0.2608,-0.2608,-0.2607,-0.2625,-0.2626,0,0,0,0,0,0,-0.2738,-0.2731,-0.2709,-0.2707,-0.2711,-0.2687,-0.2683,-0.268,-0.2654,-0.2649,-0.2658,-0.2656,-0.2627,-0.2624,-0.2622,-0.2635,-0.2608,-0.2607,-0.2607,-0.2625,-0.2626,-0.2626,0,0,0,0,0,0,-0.2738,-0.2736,-0.271,-0.2718,-0.2714,-0.2688,-0.2684,-0.2679,-0.2675,-0.2649,-0.2644,-0.2659,-0.2626,-0.2623,-0.2623,-0.2633,-0.2607,-0.2606,-0.2624,-0.2625,-0.2626,-0.2662,0,0,0,0,0,0,-0.2739,-0.2737,-0.2742,-0.2719,-0.2714,-0.2712,-0.2685,-0.2679,-0.2674,-0.267,-0.2648,-0.2644,-0.2625,-0.2624,-0.2623,-0.2632,-0.2606,-0.2623,-0.2624,-0.2626,-0.266,-0.2664,-0.2668,0,0,0,0,0,-0.2741,-0.2754,-0.2742,-0.274,-0.272,-0.2713,-0.271,-0.2688,-0.2675,-0.268,-0.2663,-0.2645,-0.2633,-0.2625,-0.2623,-0.2632,-0.2622,-0.2624,-0.2625,-0.2658,-0.2663,-0.2668,0,0,0,0,0,0,-0.2779,-0.275,-0.2737,-0.2744,-0.2731,-0.2706,-0.2712,-0.2695,-0.2686,-0.2683,-0.2656,-0.2651,-0.2654,-0.2643,-0.2635,-0.2643,-0.2624,-0.2626,-0.265,-0.2655,-0.2659,-0.2661,-0.2606,0,0,0,0,0,-0.2789,-0.2786,-0.276,-0.2768,-0.2762,-0.2738,-0.2734,-0.2718,-0.2704,-0.2699,-0.2682,-0.2669,-0.2662,-0.2658,-0.265,-0.2658,-0.2652,-0.2663,-0.2668,-0.2671,-0.2672,-0.2673,-0.2677,-0.2633,-0.2633,-0.2632,0,0,-0.2808,-0.2792,-0.2791,-0.2776,-0.2764,-0.276,-0.2734,-0.2732,-0.2729,-0.2698,-0.2697,-0.2685,-0.2668,-0.2671,-0.2672,-0.2662,-0.2683,-0.2673,-0.2676,-0.2676,-0.2676,-0.268,-0.2684,-0.2634,-0.2634,-0.2633,0,0,-0.284,-0.2829,-0.2833,-0.2821,-0.2804,-0.2787,-0.2789,-0.2766,-0.2756,-0.2755,-0.2731,-0.2727,-0.2716,-0.2704,-0.2697,-0.2724,-0.2706,-0.2722,-0.2744,-0.2745,-0.2748,-0.2751,-0.2759,-0.2762,-0.2724,-0.2724,-0.2724,0,-0.2866,-0.286,-0.2837,-0.2836,-0.2829,-0.2801,-0.2804,-0.2794,-0.2775,-0.2771,-0.276,-0.2744,-0.2731,-0.273,-0.2737,-0.2733,-0.2732,-0.2724,-0.275,-0.2753,-0.2755,-0.2762,-0.2765,-0.2726,-0.2726,-0.2725,-0.2725,0,-0.2892,-0.2888,-0.2893,-0.2875,-0.2869,-0.287,-0.2846,-0.2842,-0.2827,-0.2811,-0.2809,-0.2792,-0.278,-0.2779,-0.2764,-0.2775,-0.2769,-0.2755,-0.2736,-0.2761,-0.2767,-0.277,-0.2729,-0.2728,-0.2727,-0.2727,0,0,-0.2948,-0.2915,-0.2918,-0.2908,-0.2886,-0.2882,-0.2882,-0.2869,-0.2866,-0.2854,-0.2851,-0.2842,-0.2828,-0.2819,-0.2803,-0.2804,-0.2824,-0.2789,-0.2788,-0.2794,-0.2833,-0.2843,-0.2846,-0.2812,-0.2813,-0.2813,-0.2834,0,-0.2975,-0.2971,-0.295,-0.2953,-0.2948,-0.2921,-0.292,-0.2906,-0.2891,-0.2885,-0.2868,-0.2861,-0.2844,-0.2839,-0.2839,-0.2822,-0.2831,-0.282,-0.2808,-0.2808,-0.2812,-0.285,-0.286,-0.2881,-0.2836,-0.2836,-0.2837,0,-0.3006,-0.2994,-0.2997,-0.2973,-0.297,-0.297,-0.2955,-0.295,-0.2933,-0.2922,-0.2912,-0.2894,-0.289,-0.2873,-0.2867,-0.286,-0.2854,-0.2845,-0.2845,-0.2842,-0.2823,-0.2846,-0.2887,-0.2889,-0.284,-0.284,-0.284,0,-0.3043,-0.3029,-0.3028,-0.3021,-0.2994,-0.2994,-0.2983,-0.2965,-0.2958,-0.2946,-0.2941,-0.2929,-0.2921,-0.2912,-0.289,-0.288,-0.2885,-0.2867,-0.2875,-0.2875,-0.2876,-0.2876,-0.2915,-0.2876,-0.2875,-0.2875,-0.2875,0,-0.3075,-0.3077,-0.3044,-0.3043,-0.3044,-0.3019,-0.3021,-0.3007,-0.2991,-0.2986,-0.2963,-0.2959,-0.293,-0.2923,-0.2906,-0.2902,-0.29,-0.289,-0.2885,-0.2891,-0.2892,-0.2885,-0.2883,-0.2876,-0.2876,-0.2876,-0.2876,0,-0.3117,-0.3095,-0.3092,-0.3066,-0.306,-0.3062,-0.3039,-0.3037,-0.3021,-0.3015,-0.3012,-0.2986,-0.2976,-0.2953,-0.2937,-0.2925,-0.2925,-0.2918,-0.2931,-0.2927,-0.2936,-0.2935,-0.2971,-0.2973,-0.2934,-0.2934,-0.2935,0,-0.3137,-0.3138,-0.3112,-0.3107,-0.3097,-0.309,-0.3082,-0.3057,-0.3051,-0.3031,-0.303,-0.3018,-0.3007,-0.2991,-0.2971,-0.2958,-0.2949,-0.2962,-0.2946,-0.2952,-0.2946,-0.2946,-0.2945,-0.2965,-0.2966,-0.2966,-0.2967,0,-0.3175,-0.3164,-0.3155,-0.3141,-0.3133,-0.3121,-0.3108,-0.3105,-0.3077,-0.3071,-0.306,-0.3051,-0.3034,-0.3021,-0.3005,-0.2992,-0.2974,-0.2972,-0.2972,-0.2978,-0.2985,-0.2979,-0.2938,-0.2971,-0.297,-0.297,-0.297,-0.297,-0.3206,-0.3204,-0.3185,-0.3175,-0.3163,-0.3151,-0.3146,-0.3129,-0.312,-0.3104,-0.309,-0.308,-0.3061,-0.3037,-0.3026,-0.3017,-0.3008,-0.301,-0.301,-0.301,-0.3012,-0.2987,-0.3014,-0.3014,-0.3014,-0.3014,-0.3014,0,-0.3241,-0.3227,-0.3218,-0.32,-0.3191,-0.3176,-0.316,-0.3154,-0.3145,-0.3129,-0.3119,-0.3105,-0.3092,-0.3071,-0.3056,-0.3053,-0.3044,-0.305,-0.3049,-0.3046,-0.3022,-0.3021,-0.3057,-0.3057,-0.3057,-0.3057,-0.3057,-0.3057,-0.3258,-0.3254,-0.3241,-0.323,-0.3216,-0.3206,-0.3198,-0.3186,-0.3173,-0.3159,-0.3149,-0.3135,-0.3116,-0.3099,-0.3087,-0.3081,-0.3075,-0.3083,-0.3075,-0.3052,-0.3048,-0.3044,-0.3044,-0.3083,-0.3083,-0.3099,-0.3099,-0.3099]},{"header":{"parameterUnit":"m.s-1","parameterCategory":1,"la1":30.2991,"la2":30.254,"lo1":-89.0895,"lo2":-89.0444,"dy":0.0017,"dx":0.0017,"nx":28,"ny":28,"refTime":"2026-02-18T03:00:00:Z","depth":0,"parameterNumber":3,"parameterNumberName":"V-component_of_WINDS"},"data":[0,0,0,0,0,0,0,0,0,0,0,0,0,0,0,0,0,0,0,0,0,0,0,0,0,0,0,0,0,0,0,0,0,0,0,0,0,0,0,0,0,0,0,0,0,0,0,0,0,0,0,0,0,0,0,0,0,0,2.8755,2.8757,0,2.8884,2.8885,2.8887,2.8942,2.8942,2.8942,2.8941,2.9076,2.9079,2.9083,0,0,0,0,0,0,0,0,0,0,0,0,0,2.8562,2.8565,2.8755,2.8757,2.8758,2.8884,2.8885,2.8887,2.8942,2.8942,2.8941,2.8941,2.9075,2.9079,2.9084,0,0,0,0,0,0,0,0,0,0,0,0,0,2.8663,2.8566,2.8755,2.8801,2.8806,2.8883,2.8885,2.8888,2.8942,2.8942,2.8941,2.8941,2.9073,2.9079,2.9084,2.9126,0,0,2.9102,2.9104,0,0,0,0,0,0,0,0,2.8658,2.8671,2.8793,2.8798,2.8804,2.8896,2.8867,2.8968,2.8942,2.8891,2.8941,2.8941,2.9017,2.9027,2.9052,2.9132,2.9138,2.9102,2.9106,2.9108,2.911,0,0,0,0,0,0,0,2.8651,2.8665,2.8806,2.8794,2.8801,2.8816,2.8831,2.8886,2.8954,2.8895,2.8899,2.8914,2.902,2.9046,2.9055,2.914,2.9102,2.9107,2.911,2.9113,2.9264,2.9265,0,0,0,0,0,0,2.8635,2.8659,2.8802,2.881,2.8728,2.882,2.8836,2.8867,2.8954,2.8966,2.8914,2.8916,2.9037,2.9049,2.906,2.9117,2.9108,2.9113,2.9117,2.9264,2.9265,2.9265,0,0,0,0,0,0,2.8631,2.8648,2.8797,2.8736,2.8756,2.8824,2.8859,2.887,2.8897,2.8968,2.898,2.8928,2.9037,2.9052,2.911,2.9122,2.9116,2.9121,2.9263,2.9264,2.9265,2.9229,0,0,0,0,0,0,2.8625,2.8646,2.8661,2.8736,2.8759,2.8843,2.8859,2.8873,2.8906,2.891,2.8985,2.8997,2.9038,2.9101,2.9115,2.913,2.9125,2.9262,2.9263,2.9265,2.923,2.9229,2.9228,0,0,0,0,0,2.8618,2.8646,2.8662,2.8679,2.878,2.8843,2.8857,2.8903,2.8906,2.8924,2.897,2.8994,2.9118,2.9106,2.9123,2.914,2.9262,2.9263,2.9264,2.923,2.9229,2.9228,0,0,0,0,0,0,2.8572,2.8657,2.8675,2.8727,2.8778,2.8852,2.8875,2.89,2.8951,2.8952,2.9008,2.9025,2.9078,2.9115,2.91,2.9186,2.9192,2.9197,2.916,2.916,2.9159,2.915,2.913,0,0,0,0,0,2.8567,2.8611,2.8683,2.8723,2.8747,2.8807,2.8836,2.8867,2.8922,2.8944,2.8994,2.9047,2.9099,2.9131,2.9182,2.9235,2.9253,2.9255,2.9254,2.9253,2.9257,2.929,2.9292,2.927,2.927,2.927,0,0,2.8559,2.8611,2.8635,2.8715,2.8757,2.8803,2.8824,2.8871,2.8906,2.8951,2.9009,2.9048,2.9111,2.9167,2.9194,2.9199,2.9267,2.9255,2.9254,2.9258,2.9292,2.9294,2.9296,2.9271,2.9271,2.927,0,0,2.8568,2.8611,2.8649,2.8692,2.8756,2.8796,2.8805,2.8877,2.8904,2.8963,2.8998,2.9041,2.9128,2.9172,2.9206,2.9233,2.9259,2.9248,2.9245,2.9277,2.9279,2.928,2.9292,2.9296,2.9252,2.9252,2.9252,0,2.855,2.8619,2.8666,2.8712,2.8747,2.879,2.8831,2.887,2.8947,2.8971,2.8976,2.9087,2.9132,2.92,2.9207,2.9232,2.9246,2.924,2.9274,2.9277,2.9279,2.9291,2.9295,2.925,2.925,2.925,2.9251,0,2.8595,2.8642,2.8666,2.874,2.8778,2.882,2.8876,2.8909,2.8937,2.8977,2.9037,2.9093,2.9157,2.9175,2.9203,2.9248,2.925,2.9263,2.9271,2.9279,2.9291,2.9296,2.9248,2.9248,2.9249,2.9249,0,0,2.8577,2.8678,2.8686,2.8721,2.8796,2.8835,2.888,2.8942,2.897,2.9023,2.9064,2.9137,2.9151,2.9189,2.9223,2.925,2.9271,2.9261,2.9263,2.9263,2.9327,2.9317,2.9321,2.9288,2.9289,2.929,2.9322,0,2.8598,2.868,2.8725,2.879,2.8836,2.8878,2.8918,2.8969,2.9008,2.9054,2.9097,2.9149,2.9162,2.9186,2.9215,2.9262,2.9285,2.926,2.9329,2.9331,2.9313,2.9328,2.9317,2.9345,2.9327,2.9328,2.9328,0,2.8632,2.8684,2.8753,2.8825,2.8846,2.8881,2.8943,2.8985,2.9045,2.9072,2.9115,2.9149,2.92,2.9203,2.9277,2.9259,2.929,2.9317,2.932,2.9329,2.9331,2.9339,2.9355,2.9359,2.9336,2.9335,2.9335,0,2.8614,2.8702,2.8755,2.8784,2.8868,2.8892,2.8929,2.8988,2.9024,2.9078,2.9102,2.9162,2.9195,2.9241,2.9291,2.9288,2.936,2.9366,2.9385,2.9384,2.94,2.9398,2.9422,2.9416,2.9416,2.9416,2.9416,0,2.8633,2.8674,2.8749,2.8782,2.883,2.8882,2.8929,2.8969,2.9022,2.9064,2.9104,2.9144,2.9206,2.9254,2.9293,2.9349,2.9364,2.9388,2.9398,2.9385,2.9382,2.9407,2.9407,2.9417,2.9417,2.9417,2.9417,0,2.8622,2.8673,2.8734,2.881,2.883,2.8862,2.8928,2.8962,2.9003,2.9057,2.9073,2.9138,2.9197,2.9251,2.9328,2.9355,2.9413,2.9424,2.9392,2.9398,2.9415,2.9413,2.9457,2.9466,2.9452,2.9452,2.9452,0,2.863,2.8663,2.8743,2.8774,2.881,2.8859,2.8896,2.8949,2.8986,2.9058,2.9084,2.9146,2.9198,2.929,2.9345,2.9406,2.9421,2.9432,2.943,2.9417,2.9423,2.9421,2.9426,2.9431,2.9431,2.9431,2.9431,0,2.8642,2.8666,2.8717,2.8777,2.8819,2.8869,2.8921,2.8945,2.9008,2.9048,2.9108,2.9148,2.9228,2.929,2.9357,2.9396,2.9425,2.9431,2.9439,2.9427,2.9408,2.9421,2.9392,2.943,2.943,2.943,2.943,2.943,2.8642,2.8674,2.8736,2.8791,2.8836,2.8884,2.8921,2.8967,2.9018,2.9087,2.9116,2.9178,2.9239,2.9332,2.9372,2.9422,2.9428,2.9439,2.9442,2.9444,2.9443,2.9398,2.9434,2.9434,2.9434,2.9434,2.9434,0,2.8657,2.8699,2.875,2.8821,2.8866,2.8888,2.8947,2.8983,2.9037,2.9091,2.9142,2.9213,2.9273,2.9334,2.9398,2.9426,2.9442,2.9442,2.9441,2.945,2.9433,2.942,2.9429,2.9429,2.9429,2.9429,2.9429,2.9429,2.867,2.8726,2.8758,2.8838,2.888,2.8941,2.8973,2.9018,2.9062,2.9139,2.9189,2.9228,2.9286,2.9355,2.9412,2.9428,2.9451,2.9448,2.9468,2.9451,2.9451,2.9451,2.944,2.9452,2.9452,2.9482,2.9482,2.9482]}]]